Time,TemperatureF,DewpointF,PressureIn,WindDirection,WindDirectionDegrees,WindSpeedMPH,WindSpeedGustMPH,Humidity,HourlyPrecipIn,Conditions,Clouds,dailyrainin,SolarRadiationWatts/m^2,SoftwareType,DateUTC
2013-03-17 00:05:00,67.8,57.0,30.13,SW,232,2.0,-999.0,68,-99.99,,,0.00,0,weatherlink.com 1.10,2013-03-17 04:05:00,
2013-03-17 00:20:00,67.4,57.0,30.13,SW,232,2.0,-999.0,70,-99.99,,,0.00,0,weatherlink.com 1.10,2013-03-17 04:20:00,
2013-03-17 00:35:00,66.7,57.0,30.13,WSW,244,4.0,-999.0,72,-99.99,,,0.00,0,weatherlink.com 1.10,2013-03-17 04:35:00,
2013-03-17 00:50:00,66.1,58.0,30.13,SW,236,1.0,-999.0,74,-99.99,,,0.00,0,weatherlink.com 1.10,2013-03-17 04:50:00,
2013-03-17 01:05:00,65.7,57.0,30.13,SW,232,4.0,-999.0,74,-99.99,,,0.00,0,weatherlink.com 1.10,2013-03-17 05:05:00,
2013-03-17 01:20:00,65.3,58.0,30.12,WSW,240,2.0,-999.0,76,-99.99,,,0.00,0,weatherlink.com 1.10,2013-03-17 05:20:00,
2013-03-17 01:35:00,65.0,57.0,30.12,WSW,238,2.0,-999.0,76,-99.99,,,0.00,0,weatherlink.com 1.10,2013-03-17 05:35:00,
2013-03-17 01:50:00,64.7,57.0,30.12,WSW,253,0.0,-999.0,76,-99.99,,,0.00,0,weatherlink.com 1.10,2013-03-17 05:50:00,
2013-03-17 02:05:00,64.5,57.0,30.11,West,259,4.0,-999.0,77,-99.99,,,0.00,0,weatherlink.com 1.10,2013-03-17 06:05:00,
2013-03-17 02:20:00,64.7,57.0,30.11,WSW,247,0.0,-999.0,77,-99.99,,,0.00,0,weatherlink.com 1.10,2013-03-17 06:20:00,
2013-03-17 02:35:00,64.6,58.0,30.11,WSW,252,1.0,-999.0,78,-99.99,,,0.00,0,weatherlink.com 1.10,2013-03-17 06:35:00,
2013-03-17 02:50:00,64.5,58.0,30.10,WSW,258,0.0,-999.0,78,-99.99,,,0.00,0,weatherlink.com 1.10,2013-03-17 06:50:00,
2013-03-17 03:06:00,64.5,58.0,30.10,West,269,4.0,-999.0,78,-99.99,,,0.00,0,weatherlink.com 1.10,2013-03-17 07:06:00,
2013-03-17 03:20:00,64.5,58.0,30.10,West,271,2.0,-999.0,79,-99.99,,,0.00,0,weatherlink.com 1.10,2013-03-17 07:20:00,
2013-03-17 03:36:00,64.5,58.0,30.09,West,281,0.0,-999.0,79,-99.99,,,0.00,0,weatherlink.com 1.10,2013-03-17 07:36:00,
2013-03-17 03:51:00,64.4,58.0,30.09,WNW,283,0.0,-999.0,79,-99.99,,,0.00,0,weatherlink.com 1.10,2013-03-17 07:51:00,
2013-03-17 04:06:00,64.4,58.0,30.09,WNW,287,2.0,-999.0,79,-99.99,,,0.00,0,weatherlink.com 1.10,2013-03-17 08:06:00,
2013-03-17 04:21:00,64.4,58.0,30.09,WNW,287,4.0,-999.0,79,-99.99,,,0.00,0,weatherlink.com 1.10,2013-03-17 08:21:00,
2013-03-17 04:36:00,64.6,58.0,30.09,West,277,4.0,-999.0,79,-99.99,,,0.00,0,weatherlink.com 1.10,2013-03-17 08:36:00,
2013-03-17 04:51:00,64.7,58.0,30.09,WNW,284,2.0,-999.0,79,-99.99,,,0.00,0,weatherlink.com 1.10,2013-03-17 08:51:00,
2013-03-17 05:06:00,64.7,58.0,30.09,WNW,287,0.0,-999.0,79,-99.99,,,0.00,0,weatherlink.com 1.10,2013-03-17 09:06:00,
2013-03-17 05:21:00,64.8,58.0,30.09,WNW,287,2.0,-999.0,79,-99.99,,,0.00,0,weatherlink.com 1.10,2013-03-17 09:21:00,
2013-03-17 05:36:00,65.1,59.0,30.09,West,275,5.0,-999.0,80,-99.99,,,0.00,0,weatherlink.com 1.10,2013-03-17 09:36:00,
2013-03-17 05:51:00,65.0,58.0,30.09,West,276,0.0,-999.0,79,-99.99,,,0.00,0,weatherlink.com 1.10,2013-03-17 09:51:00,
2013-03-17 06:06:00,64.9,59.0,30.10,West,281,0.0,-999.0,80,-99.99,,,0.00,0,weatherlink.com 1.10,2013-03-17 10:06:00,
2013-03-17 06:21:00,64.7,58.0,30.10,WNW,282,2.0,-999.0,80,-99.99,,,0.00,0,weatherlink.com 1.10,2013-03-17 10:21:00,
2013-03-17 06:36:00,64.5,58.0,30.10,WNW,282,0.0,-999.0,80,-99.99,,,0.00,0,weatherlink.com 1.10,2013-03-17 10:36:00,
2013-03-17 06:51:00,64.7,59.0,30.10,WNW,282,0.0,-999.0,81,-99.99,,,0.00,0,weatherlink.com 1.10,2013-03-17 10:51:00,
2013-03-17 07:06:00,64.5,59.0,30.10,WNW,282,0.0,-999.0,81,-99.99,,,0.00,0,weatherlink.com 1.10,2013-03-17 11:06:00,
2013-03-17 07:21:00,64.5,59.0,30.11,WNW,282,2.0,-999.0,81,-99.99,,,0.00,0,weatherlink.com 1.10,2013-03-17 11:21:00,
2013-03-17 07:36:00,64.2,58.0,30.10,NNE,14,0.0,-999.0,81,-99.99,,,0.00,7,weatherlink.com 1.10,2013-03-17 11:36:00,
2013-03-17 07:51:00,64.5,59.0,30.11,NNW,348,0.0,-999.0,82,-99.99,,,0.00,35,weatherlink.com 1.10,2013-03-17 11:51:00,
2013-03-17 08:06:00,65.1,60.0,30.12,NW,309,0.0,-999.0,82,-99.99,,,0.00,49,weatherlink.com 1.10,2013-03-17 12:06:00,
2013-03-17 08:21:00,65.2,60.0,30.13,WNW,288,0.0,-999.0,82,-99.99,,,0.00,16,weatherlink.com 1.10,2013-03-17 12:21:00,
2013-03-17 08:36:00,65.4,59.0,30.14,WNW,286,0.0,-999.0,81,-99.99,,,0.00,86,weatherlink.com 1.10,2013-03-17 12:36:00,
2013-03-17 08:51:00,66.0,60.0,30.13,WNW,287,0.0,-999.0,81,-99.99,,,0.00,120,weatherlink.com 1.10,2013-03-17 12:51:00,
2013-03-17 09:06:00,66.8,61.0,30.14,WNW,286,0.0,-999.0,81,-99.99,,,0.00,158,weatherlink.com 1.10,2013-03-17 13:06:00,
2013-03-17 09:21:00,68.2,62.0,30.15,WNW,294,2.0,-999.0,81,-99.99,,,0.00,167,weatherlink.com 1.10,2013-03-17 13:21:00,
2013-03-17 09:36:00,68.9,62.0,30.15,East,98,8.0,-999.0,79,-99.99,,,0.00,183,weatherlink.com 1.10,2013-03-17 13:36:00,
2013-03-17 09:51:00,70.2,62.0,30.16,ESE,113,7.0,-999.0,76,-99.99,,,0.00,229,weatherlink.com 1.10,2013-03-17 13:51:00,
2013-03-17 10:06:00,71.2,62.0,30.15,ESE,112,9.0,-999.0,73,-99.99,,,0.00,186,weatherlink.com 1.10,2013-03-17 14:06:00,
2013-03-17 10:21:00,71.7,63.0,30.15,East,89,6.0,-999.0,74,-99.99,,,0.00,162,weatherlink.com 1.10,2013-03-17 14:21:00,
2013-03-17 10:36:00,72.2,63.0,30.15,East,96,11.0,-999.0,73,-99.99,,,0.00,111,weatherlink.com 1.10,2013-03-17 14:36:00,
2013-03-17 10:51:00,72.2,64.0,30.14,ESE,112,14.0,-999.0,74,-99.99,,,0.00,323,weatherlink.com 1.10,2013-03-17 14:51:00,
2013-03-17 11:06:00,74.7,65.0,30.14,ESE,107,14.0,-999.0,72,-99.99,,,0.00,350,weatherlink.com 1.10,2013-03-17 15:06:00,
2013-03-17 11:21:00,74.3,64.0,30.15,ESE,115,12.0,-999.0,70,-99.99,,,0.00,445,weatherlink.com 1.10,2013-03-17 15:21:00,
2013-03-17 11:36:00,75.0,64.0,30.15,ESE,122,11.0,-999.0,68,-99.99,,,0.00,406,weatherlink.com 1.10,2013-03-17 15:36:00,
2013-03-17 11:51:00,76.1,65.0,30.14,East,96,12.0,-999.0,69,-99.99,,,0.00,396,weatherlink.com 1.10,2013-03-17 15:51:00,
2013-03-17 12:06:00,76.2,64.0,30.15,SE,127,9.0,-999.0,65,-99.99,,,0.00,450,weatherlink.com 1.10,2013-03-17 16:06:00,
2013-03-17 12:21:00,77.4,65.0,30.14,ESE,121,9.0,-999.0,66,-99.99,,,0.00,640,weatherlink.com 1.10,2013-03-17 16:21:00,
2013-03-17 12:36:00,78.5,65.0,30.14,SE,126,9.0,-999.0,64,-99.99,,,0.00,812,weatherlink.com 1.10,2013-03-17 16:36:00,
2013-03-17 12:51:00,79.4,64.0,30.13,ESE,104,9.0,-999.0,60,-99.99,,,0.00,545,weatherlink.com 1.10,2013-03-17 16:51:00,
2013-03-17 13:06:00,79.8,65.0,30.13,SE,135,19.0,-999.0,60,-99.99,,,0.00,946,weatherlink.com 1.10,2013-03-17 17:06:00,
2013-03-17 13:21:00,78.7,64.0,30.13,ESE,121,2.0,-999.0,60,-99.99,,,0.00,522,weatherlink.com 1.10,2013-03-17 17:21:00,
2013-03-17 13:36:00,78.3,64.0,30.12,SSE,157,6.0,-999.0,61,-99.99,,,0.00,545,weatherlink.com 1.10,2013-03-17 17:36:00,
2013-03-17 13:51:00,78.2,64.0,30.12,SE,145,8.0,-999.0,61,-99.99,,,0.00,515,weatherlink.com 1.10,2013-03-17 17:51:00,
2013-03-17 14:06:00,77.3,63.0,30.12,SE,134,9.0,-999.0,62,-99.99,,,0.00,466,weatherlink.com 1.10,2013-03-17 18:06:00,
2013-03-17 14:21:00,77.5,63.0,30.11,SSE,159,8.0,-999.0,61,-99.99,,,0.00,448,weatherlink.com 1.10,2013-03-17 18:21:00,
2013-03-17 14:36:00,78.0,63.0,30.10,SE,136,12.0,-999.0,61,-99.99,,,0.00,545,weatherlink.com 1.10,2013-03-17 18:36:00,
2013-03-17 14:51:00,78.6,64.0,30.09,ESE,121,10.0,-999.0,62,-99.99,,,0.00,529,weatherlink.com 1.10,2013-03-17 18:51:00,
2013-03-17 15:06:00,78.4,63.0,30.09,SE,136,13.0,-999.0,60,-99.99,,,0.00,475,weatherlink.com 1.10,2013-03-17 19:06:00,
2013-03-17 15:21:00,78.5,64.0,30.08,SE,146,8.0,-999.0,61,-99.99,,,0.00,647,weatherlink.com 1.10,2013-03-17 19:21:00,
2013-03-17 15:36:00,78.6,64.0,30.07,SSE,147,10.0,-999.0,61,-99.99,,,0.00,487,weatherlink.com 1.10,2013-03-17 19:36:00,
2013-03-17 15:51:00,79.1,64.0,30.06,ESE,105,12.0,-999.0,61,-99.99,,,0.00,960,weatherlink.com 1.10,2013-03-17 19:51:00,
2013-03-17 16:06:00,77.7,64.0,30.07,SE,146,15.0,-999.0,62,-99.99,,,0.00,424,weatherlink.com 1.10,2013-03-17 20:06:00,
2013-03-17 16:21:00,77.2,64.0,30.07,SE,132,10.0,-999.0,63,-99.99,,,0.00,473,weatherlink.com 1.10,2013-03-17 20:21:00,
2013-03-17 16:36:00,77.3,64.0,30.06,SE,128,9.0,-999.0,64,-99.99,,,0.00,454,weatherlink.com 1.10,2013-03-17 20:36:00,
2013-03-17 16:51:00,76.3,63.0,30.06,SE,134,13.0,-999.0,64,-99.99,,,0.00,301,weatherlink.com 1.10,2013-03-17 20:51:00,
2013-03-17 17:06:00,75.5,63.0,30.06,SE,141,10.0,-999.0,65,-99.99,,,0.00,200,weatherlink.com 1.10,2013-03-17 21:06:00,
2013-03-17 17:21:00,74.8,62.0,30.06,SSE,157,4.0,-999.0,64,-99.99,,,0.00,171,weatherlink.com 1.10,2013-03-17 21:21:00,
2013-03-17 17:36:00,74.3,62.0,30.07,South,178,5.0,-999.0,65,-99.99,,,0.00,243,weatherlink.com 1.10,2013-03-17 21:36:00,
2013-03-17 17:51:00,74.3,61.0,30.07,SSE,150,14.0,-999.0,63,-99.99,,,0.00,151,weatherlink.com 1.10,2013-03-17 21:51:00,
2013-03-17 18:06:00,73.7,60.0,30.07,South,175,5.0,-999.0,62,-99.99,,,0.00,116,weatherlink.com 1.10,2013-03-17 22:06:00,
2013-03-17 18:21:00,73.4,60.0,30.07,SSE,147,6.0,-999.0,63,-99.99,,,0.00,155,weatherlink.com 1.10,2013-03-17 22:21:00,
2013-03-17 18:36:00,73.4,60.0,30.07,SSE,163,7.0,-999.0,64,-99.99,,,0.00,95,weatherlink.com 1.10,2013-03-17 22:36:00,
2013-03-17 19:06:00,72.5,61.0,30.06,SSE,155,12.0,-999.0,68,-99.99,,,0.00,32,weatherlink.com 1.10,2013-03-17 23:06:00,
2013-03-17 19:21:00,72.1,62.0,30.05,ESE,106,8.0,-999.0,70,-99.99,,,0.00,16,weatherlink.com 1.10,2013-03-17 23:21:00,
2013-03-17 19:36:00,71.6,61.0,30.04,SE,134,7.0,-999.0,69,-99.99,,,0.00,0,weatherlink.com 1.10,2013-03-17 23:36:00,
2013-03-17 19:51:00,71.3,61.0,30.04,SE,145,9.0,-999.0,71,-99.99,,,0.00,0,weatherlink.com 1.10,2013-03-17 23:51:00,
2013-03-17 20:06:00,71.3,62.0,30.05,SE,135,2.0,-999.0,72,-99.99,,,0.00,0,weatherlink.com 1.10,2013-03-18 00:06:00,
2013-03-17 20:21:00,71.2,63.0,30.06,SSE,151,5.0,-999.0,74,-99.99,,,0.04,0,weatherlink.com 1.10,2013-03-18 00:21:00,
2013-03-17 20:36:00,70.5,62.0,30.06,South,174,5.0,-999.0,75,-99.99,,,0.13,0,weatherlink.com 1.10,2013-03-18 00:36:00,
2013-03-17 20:51:00,69.9,62.0,30.06,SSE,147,6.0,-999.0,76,-99.99,,,0.13,0,weatherlink.com 1.10,2013-03-18 00:51:00,
2013-03-17 21:06:00,69.9,62.0,30.06,SSE,159,6.0,-999.0,77,-99.99,,,0.13,0,weatherlink.com 1.10,2013-03-18 01:06:00,
2013-03-17 21:21:00,70.2,63.0,30.06,SE,134,13.0,-999.0,78,-99.99,,,0.13,0,weatherlink.com 1.10,2013-03-18 01:21:00,
2013-03-17 21:36:00,70.5,64.0,30.06,SE,130,11.0,-999.0,79,-99.99,,,0.13,0,weatherlink.com 1.10,2013-03-18 01:36:00,
2013-03-17 21:51:00,70.4,64.0,30.07,SE,143,12.0,-999.0,79,-99.99,,,0.13,0,weatherlink.com 1.10,2013-03-18 01:51:00,
2013-03-17 22:06:00,70.1,63.0,30.08,ESE,122,13.0,-999.0,79,-99.99,,,0.13,0,weatherlink.com 1.10,2013-03-18 02:06:00,
2013-03-17 22:36:00,69.9,63.0,30.09,ESE,112,7.0,-999.0,79,-99.99,,,0.13,0,weatherlink.com 1.10,2013-03-18 02:36:00,
2013-03-17 22:51:00,69.7,63.0,30.09,ESE,121,8.0,-999.0,79,-99.99,,,0.13,0,weatherlink.com 1.10,2013-03-18 02:51:00,
2013-03-17 23:21:00,69.6,63.0,30.09,ESE,117,13.0,-999.0,79,-99.99,,,0.13,0,weatherlink.com 1.10,2013-03-18 03:21:00,
2013-03-17 23:36:00,69.8,63.0,30.09,ESE,113,9.0,-999.0,79,-99.99,,,0.13,0,weatherlink.com 1.10,2013-03-18 03:36:00,